Tracking 33446 objects as of 10-Mar-2026
HD Live streaming from Space Station
objects crossing your sky now

SDA_1682

Track SDA_1682 now!
10-day predictions


NORAD ID: 65992
Int'l Code: 2025-230U
Perigee: 952.8 km
Apogee: 956.8 km
Inclination: 81.3 °
Period: 104.0 minutes
Semi major axis: 7325 km
RCS: Unknown
Launch date: October 15, 2025
Source: United States (US)
Launch site: AIR FORCE WESTERN TEST RANGE (AFWTR)
Your satellite tracking list
Your tracking list is empty




NASA's NSSDC Master Catalog

Two Line Element Set (TLE):
1 65992U 25230U   26069.15615726 -.00028841  00000-0 -25818-1 0  9999
2 65992  81.3027 303.6032 0002756  77.3699 282.7766 13.84579242 20108
Source of the keplerian elements: AFSPC